Location: Amon Carter Post Office
(32.8281°N, 97.0484°W)
Time: 12:42:59
(UTC+00:00)

Sich 1 - Pass Details

Date: 13 July 2022
Orbit: 593 x 622 km, 82.5° (Epoch: 12 August)

Event Time Altitude Azimuth Distance (km) Brightness Sun altitude
Exits shadow 09:32:42 21° 296° (WNW) 1,358 4.6 -20.7°
Drops below altitude 10° 09:35:22 10° 334° (NNW) 1,932 5.8 -20.3°
Sets 09:38:00 0° 350° (N) 2,836 6.9 -19.9°
